TimeCDT,TemperatureF,Dew PointF,Humidity,Sea Level PressureIn,VisibilityMPH,Wind Direction,Wind SpeedMPH,Gust SpeedMPH,PrecipitationIn,Events,Conditions,WindDirDegrees,DateUTC
12:53 AM,82.0,69.1,65,29.94,10.0,South,4.6,-,0.00,,Partly Cloudy,190,2013-09-04 05:53:00
1:53 AM,81.0,70.0,69,29.94,10.0,South,3.5,-,N/A,,Clear,190,2013-09-04 06:53:00
2:53 AM,79.0,70.0,74,29.94,10.0,Calm,Calm,-,N/A,,Clear,0,2013-09-04 07:53:00
3:53 AM,78.1,70.0,76,29.94,10.0,South,4.6,-,N/A,,Clear,180,2013-09-04 08:53:00
4:53 AM,78.1,71.1,79,29.94,10.0,South,4.6,-,N/A,,Clear,180,2013-09-04 09:53:00
5:53 AM,77.0,72.0,84,29.95,10.0,South,4.6,-,N/A,,Clear,190,2013-09-04 10:53:00
6:53 AM,77.0,72.0,84,29.98,10.0,South,3.5,-,N/A,,Clear,190,2013-09-04 11:53:00
7:53 AM,78.1,72.0,81,29.99,10.0,Calm,Calm,-,N/A,,Clear,0,2013-09-04 12:53:00
8:53 AM,82.0,73.0,74,30.01,10.0,SSW,4.6,-,N/A,,Clear,210,2013-09-04 13:53:00
9:53 AM,87.1,72.0,61,30.02,10.0,Variable,3.5,-,N/A,,Clear,0,2013-09-04 14:53:00
10:53 AM,89.1,71.1,55,30.03,10.0,Calm,Calm,-,N/A,,Scattered Clouds,0,2013-09-04 15:53:00
11:53 AM,93.0,70.0,47,30.02,10.0,Calm,Calm,-,N/A,,Clear,0,2013-09-04 16:53:00
12:53 PM,95.0,68.0,41,30.01,10.0,Variable,3.5,-,N/A,,Partly Cloudy,0,2013-09-04 17:53:00
1:53 PM,97.0,68.0,39,29.98,10.0,Variable,5.8,-,N/A,,Partly Cloudy,0,2013-09-04 18:53:00
2:53 PM,96.1,66.9,38,29.96,10.0,Variable,3.5,-,N/A,,Clear,0,2013-09-04 19:53:00
3:53 PM,97.0,66.0,36,29.93,10.0,East,4.6,-,N/A,,Clear,100,2013-09-04 20:53:00
4:53 PM,97.0,66.9,37,29.91,10.0,South,5.8,-,N/A,,Clear,190,2013-09-04 21:53:00
5:53 PM,97.0,66.9,37,29.92,10.0,South,6.9,-,N/A,,Scattered Clouds,170,2013-09-04 22:53:00
6:53 PM,95.0,66.9,40,29.94,10.0,SSE,12.7,-,0.00,,Partly Cloudy,160,2013-09-04 23:53:00
7:53 PM,89.1,68.0,50,29.96,10.0,SSE,6.9,-,N/A,,Clear,150,2013-09-05 00:53:00
8:53 PM,86.0,68.0,55,29.98,10.0,SE,8.1,-,N/A,,Clear,130,2013-09-05 01:53:00
9:53 PM,84.9,70.0,61,30.02,10.0,SE,9.2,-,N/A,,Clear,140,2013-09-05 02:53:00
10:53 PM,84.0,70.0,63,30.03,10.0,SSE,5.8,-,N/A,,Clear,160,2013-09-05 03:53:00
11:53 PM,82.0,70.0,67,30.03,10.0,SSE,5.8,-,N/A,,Clear,150,2013-09-05 04:53:00